Stations météo

réclame
Mon MeteoGroup
Lerwick, Grande-Bretagne (3005): Température de l'air & dewpoint: 12.12.2017 22:00:00 - 18.12.2017 22:00:00 (GMT)Lerwick, Grande-Bretagne (3005): Température de l'air -20cm & Température de l'air -100cm: 12.12.2017 22:00:00 - 18.12.2017 22:00:00 (GMT)Lerwick, Grande-Bretagne (3005): Vitesse du vent & gusts: 12.12.2017 22:00:00 - 18.12.2017 22:00:00 (GMT)Lerwick, Grande-Bretagne (3005): Direction du vent: 12.12.2017 22:00:00 - 18.12.2017 22:00:00 (GMT)Lerwick, Grande-Bretagne (3005): reduced air pressure: 12.12.2017 22:00:00 - 18.12.2017 22:00:00 (GMT)Lerwick, Grande-Bretagne (3005): visibility: 12.12.2017 22:00:00 - 18.12.2017 22:00:00 (GMT)Lerwick, Grande-Bretagne (3005): Ensoleillement: 12.12.2017 22:00:00 - 18.12.2017 22:00:00 (GMT)Lerwick, Grande-Bretagne (3005): Quantités de précipitations: 12.12.2017 22:00:00 - 18.12.2017 22:00:00 (GMT)
Date & Time tt [°C] td [°C] tt -20cm [°C] tt -100cm [°C] ff [km/h] ff [knt] fx [km/h] fx [knt] dd ppp [hPa] vv [km] sd [min] rr [mm]
18.12.2017 22:00:00 8,8 8,7 - - 44 24 55 30 WSW 1018,4 1,6 0 0,0
18.12.2017 21:00:00 8,8 8,7 - - 39 21 57 31 WSW 1018,3 0,6 0 0,2
18.12.2017 20:00:00 8,8 8,7 - - 41 22 55 30 WSW 1018,2 0,7 0 0,0
18.12.2017 19:00:00 8,7 8,5 - - 42 23 55 30 WSW 1017,7 2,5 0 0,0
18.12.2017 18:00:00 8,5 8,3 - - 39 21 57 31 WSW 1017,2 3,5 0 0,2
18.12.2017 17:00:00 8,3 8,1 - - 42 23 61 33 WSW 1016,9 1,5 0 0,4
18.12.2017 16:00:00 7,6 7,3 - - 41 22 65 35 WSW 1017,0 2,0 0 0,4
18.12.2017 15:00:00 7,1 6,6 - - 48 26 68 37 SW 1016,7 2,5 0 0,2
18.12.2017 14:00:00 6,9 6,1 - - 52 28 68 37 SW 1017,0 4,5 0 0,4
18.12.2017 13:00:00 6,7 6,2 - - 46 25 57 31 SW 1017,6 3,0 0 1,2
18.12.2017 12:00:00 7,2 5,9 - - 37 20 50 27 SW 1018,4 12 0 0,2
18.12.2017 11:00:00 7,2 5,0 - - 37 20 46 25 SW 1018,8 22 0 0,0
18.12.2017 10:00:00 6,9 4,7 - - 26 14 - - SW 1019,6 22 0 0,0
18.12.2017 09:00:00 6,6 4,6 3,7 2,7 21 11 - - SW 1019,2 22 0 0,0
18.12.2017 08:00:00 6,6 3,6 - - 24 13 - - WSW 1019,4 24 0 0,0
18.12.2017 07:00:00 6,4 3,1 - - 22 12 - - W 1018,8 20 0 0,0
18.12.2017 06:00:00 6,1 3,0 - - 18 10 - - W 1018,5 10 0 0,0
18.12.2017 05:00:00 5,8 1,7 - - 16 9 - - W 1017,9 17 0 0,0
18.12.2017 04:00:00 5,3 1,5 - - 21 11 - - WNW 1017,0 19 0 0,0
18.12.2017 03:00:00 5,3 1,0 - - 21 11 - - WNW 1016,1 18 0 0,0
18.12.2017 02:00:00 5,2 0,6 - - 24 13 - - WNW 1015,5 16 0 0,0
18.12.2017 01:00:00 5,4 2,1 - - 26 14 46 25 WNW 1014,1 18 0 0,2
18.12.2017 00:00:00 5,4 1,3 - - 29 16 - - WNW 1013,1 20 - 0,0
17.12.2017 23:00:00 5,3 0,4 - - 28 15 48 26 WNW 1012,4 17 0 0,0
17.12.2017 22:00:00 5,4 0,8 - - 28 15 46 25 WNW 1011,3 18 0 0,0
17.12.2017 21:00:00 5,4 -0,1 - - 31 17 52 28 WNW 1010,1 18 0 0,0
17.12.2017 20:00:00 5,5 0,5 - - 29 16 55 30 WNW 1009,1 14 0 0,0
17.12.2017 19:00:00 5,5 0,4 - - 35 19 65 35 WNW 1007,6 16 0 0,0
17.12.2017 18:00:00 5,4 0,7 - - 42 23 65 35 WNW 1006,1 16 0 0,0
17.12.2017 17:00:00 5,4 0,3 - - 39 21 61 33 WNW 1004,9 20 0 0,0
17.12.2017 16:00:00 5,6 0,2 - - 39 21 57 31 WNW 1003,7 17 0 0,0
17.12.2017 15:00:00 6,1 1,7 - - 41 22 57 31 WNW 1001,8 16 0 0,4
17.12.2017 14:00:00 5,3 4,1 - - 37 20 67 36 NW 1000,5 3,8 0 0,4
17.12.2017 13:00:00 7,5 6,9 - - 34 18 72 39 W 999,1 11 0 0,8
17.12.2017 12:00:00 6,7 6,0 - - 55 30 68 37 SSW 999,1 7 0 2,8
17.12.2017 11:00:00 6,1 5,6 - - 44 24 72 39 SSW 1000,4 3,8 0 2,8
17.12.2017 10:00:00 5,9 5,4 - - 48 26 67 36 S 1001,5 5 0 2,0
17.12.2017 09:00:00 5,4 5,1 3,5 2,9 52 28 68 37 S 1003,0 5 0 1,2
17.12.2017 08:00:00 4,7 4,3 - - 50 27 68 37 S 1004,4 10 0 0,6
17.12.2017 07:00:00 4,6 3,9 - - 42 23 59 32 S 1006,0 10 0 0,2
17.12.2017 06:00:00 4,5 3,6 - - 35 19 46 25 SSW 1007,7 10 0 0,0
17.12.2017 05:00:00 4,1 2,8 - - 31 17 - - SSW 1009,2 50 0 0,0
17.12.2017 04:00:00 3,0 1,9 - - 24 13 - - SSW 1010,8 50 0 0,0
17.12.2017 03:00:00 2,5 1,3 - - 18 10 - - SSW 1012,2 50 0 0,0
17.12.2017 02:00:00 2,0 1,0 - - 16 9 - - SSW 1013,3 50 0 0,0
17.12.2017 01:00:00 1,1 -0,2 - - 9 5 - - SSW 1014,2 50 0 0,0
17.12.2017 00:00:00 0,9 -1,2 - - 5 3 - - SSW 1014,6 50 - 0,0
16.12.2017 23:00:00 -0,1 -2,3 - - 5 3 - - SSW 1015,0 50 0 0,0
16.12.2017 22:00:00 1,1 -1,7 - - 4 2 - - S 1015,2 50 0 0,0
16.12.2017 21:00:00 1,2 -0,4 - - 13 7 - - WSW 1015,5 45 0 0,0
16.12.2017 20:00:00 2,1 -0,4 - - 5 3 - - NW 1015,6 50 0 0,0
16.12.2017 19:00:00 1,9 -0,6 - - 9 5 - - WNW 1015,5 50 0 0,0
16.12.2017 18:00:00 1,2 -0,4 - - 11 6 - - W 1015,0 50 0 0,0
16.12.2017 17:00:00 2,1 -0,8 - - 15 8 - - WNW 1014,6 50 0 0,0
16.12.2017 16:00:00 1,9 -1,0 - - 13 7 - - NW 1014,1 50 0 0,0
16.12.2017 15:00:00 1,9 -0,7 - - 13 7 - - NW 1013,7 50 12 0,0
16.12.2017 14:00:00 1,9 -0,1 - - 13 7 - - NNW 1012,8 45 60 0,0
16.12.2017 13:00:00 2,0 0,0 - - 24 13 - - NNW 1012,4 50 60 0,0
16.12.2017 12:00:00 2,4 -0,4 - - 18 10 - - NNW 1012,1 35 24 0,0
16.12.2017 11:00:00 2,2 -0,1 - - 24 13 - - NNW 1011,5 45 60 0,0
16.12.2017 10:00:00 1,0 -0,1 - - 21 11 - - N 1010,9 50 6 0,0
16.12.2017 09:00:00 1,8 0,0 3,7 3,0 22 12 - - NNW 1010,1 45 0 0,0
16.12.2017 08:00:00 1,1 -0,2 - - 21 11 - - NNW 1009,4 50 0 0,0
16.12.2017 07:00:00 1,1 0,1 - - 28 15 - - N 1008,8 15 0 0,0
16.12.2017 06:00:00 1,1 0,2 - - 29 16 - - N 1008,2 25 0 0,0
16.12.2017 05:00:00 1,3 -0,2 - - 18 10 - - NNW 1007,7 50 0 0,0
16.12.2017 04:00:00 0,7 -0,9 - - 21 11 - - NW 1007,5 35 0 0,0
16.12.2017 03:00:00 0,6 -0,3 - - 18 10 - - NNW 1007,3 50 0 0,0
16.12.2017 02:00:00 1,1 -0,9 - - 16 9 - - WNW 1007,0 45 0 0,0
16.12.2017 01:00:00 1,1 -0,3 - - 26 14 - - WNW 1006,8 40 0 0,0
16.12.2017 00:00:00 2,3 -0,9 - - 15 8 - - NW 1006,5 25 - 0,0
15.12.2017 23:00:00 2,4 -0,8 - - 21 11 46 25 NNW 1006,1 35 0 0,0
15.12.2017 22:00:00 2,1 -0,6 - - 21 11 - - NW 1005,7 40 0 0,0
15.12.2017 21:00:00 2,1 -1,0 - - 26 14 - - NNW 1005,6 45 0 0,0
15.12.2017 20:00:00 1,7 -0,2 - - 29 16 - - N 1005,3 40 0 0,0
15.12.2017 19:00:00 1,8 -0,2 - - 29 16 - - N 1004,9 30 0 0,0
15.12.2017 18:00:00 1,9 -0,1 - - 26 14 46 25 NNW 1004,4 35 0 0,0
15.12.2017 17:00:00 2,1 0,0 - - 31 17 - - NNW 1003,9 25 0 0,0
15.12.2017 16:00:00 2,4 -0,2 - - 31 17 50 27 NNW 1003,2 24 0 0,0
15.12.2017 15:00:00 2,2 0,2 - - 31 17 - - N 1002,6 25 0 0,0
15.12.2017 14:00:00 2,6 0,3 - - 29 16 - - NNW 1002,0 20 36 0,0
15.12.2017 13:00:00 2,2 0,4 - - 24 13 52 28 NNW 1001,9 30 18 0,2
15.12.2017 12:00:00 2,9 1,0 - - 28 15 46 25 NNW 1001,7 35 60 0,0
15.12.2017 11:00:00 2,4 0,7 - - 26 14 48 26 NNW 1001,5 40 24 0,0
15.12.2017 10:00:00 2,2 0,5 - - 28 15 - - N 1000,9 45 0 0,0
15.12.2017 09:00:00 2,6 0,7 3,9 3,0 26 14 - - N 1000,2 45 0 0,0
15.12.2017 08:00:00 2,3 0,5 - - 21 11 - - N 999,8 30 0 0,0
15.12.2017 07:00:00 2,3 0,7 - - 22 12 - - N 998,9 40 0 0,2
15.12.2017 06:00:00 2,8 1,2 - - 31 17 46 25 N 998,3 25 0 0,0
15.12.2017 05:00:00 2,9 0,9 - - 26 14 - - N 997,4 45 0 0,0
15.12.2017 04:00:00 2,4 1,0 - - 18 10 - - N 996,5 45 0 0,0
15.12.2017 03:00:00 2,7 1,1 - - 24 13 - - N 995,6 40 0 0,0
15.12.2017 02:00:00 3,3 1,4 - - 28 15 55 30 N 994,6 30 0 0,0
15.12.2017 01:00:00 4,7 1,9 - - 46 25 67 36 NNE 993,1 40 0 0,0
15.12.2017 00:00:00 4,5 1,9 - - 46 25 70 38 NNE 992,1 15 - 0,0
14.12.2017 23:00:00 5,4 1,6 - - 46 25 70 38 NE 990,6 30 0 0,0
14.12.2017 22:00:00 5,2 2,8 - - 50 27 68 37 NE 989,5 18 0 0,2
14.12.2017 21:00:00 5,3 3,0 - - 41 22 67 36 NE 988,2 25 0 0,2
14.12.2017 20:00:00 5,4 3,0 - - 44 24 65 35 NE 986,7 18 0 0,0
14.12.2017 19:00:00 4,7 3,6 - - 26 14 - - NE 985,3 19 0 0,6
14.12.2017 18:00:00 4,7 3,3 - - 22 12 - - ENE 984,0 50 0 0,4
14.12.2017 17:00:00 3,2 2,4 - - 13 7 - - N 982,9 45 0 0,2
14.12.2017 16:00:00 3,7 2,3 - - 26 14 - - NNE 981,9 40 0 0,0
14.12.2017 15:00:00 2,5 1,6 - - 11 6 - - N 980,7 50 6 0,0
14.12.2017 14:00:00 3,6 2,0 - - 13 7 - - N 979,8 50 60 0,0
14.12.2017 13:00:00 2,3 1,4 - - 8 4 - - N 978,9 35 0 0,0
14.12.2017 12:00:00 3,2 2,1 - - 4 2 - - N 978,0 35 42 0,0
14.12.2017 11:00:00 2,0 1,1 - - 5 3 - - SW 977,1 18 6 0,0
14.12.2017 10:00:00 2,5 1,7 - - 11 6 - - SW 976,1 35 0 0,0
14.12.2017 09:00:00 2,2 1,6 3,9 3,0 5 3 - - SSW 974,9 18 0 0,0
14.12.2017 08:00:00 2,5 1,8 - - 9 5 - - SSW 973,8 18 0 0,2
14.12.2017 07:00:00 2,9 2,2 - - 15 8 - - SSW 973,1 7 0 0,0
14.12.2017 06:00:00 3,1 1,9 - - 16 9 - - SSW 972,5 23 0 0,2
14.12.2017 05:00:00 3,7 2,2 - - 22 12 - - SW 972,1 35 0 0,0
14.12.2017 04:00:00 3,8 2,2 - - 28 15 - - WSW 972,0 50 0 0,0
14.12.2017 03:00:00 3,9 2,3 - - 28 15 - - WSW 972,0 45 0 0,0
14.12.2017 02:00:00 3,3 1,8 - - 28 15 - - WSW 971,9 50 0 0,4
14.12.2017 01:00:00 2,7 1,5 - - 18 10 - - WSW 972,0 9 0 0,6
14.12.2017 00:00:00 2,2 1,3 - - 16 9 - - W 972,4 20 - 1,2
13.12.2017 23:00:00 2,2 1,6 - - 13 7 - - W 972,4 30 0 1,8
13.12.2017 22:00:00 2,3 1,5 - - 8 4 - - SSW 972,6 6 0 1,4
13.12.2017 21:00:00 2,0 1,4 - - 13 7 - - SSW 972,6 27 0 0,8
13.12.2017 20:00:00 2,8 1,9 - - 26 14 - - WSW 972,5 20 0 0,0
13.12.2017 19:00:00 3,0 2,0 - - 18 10 - - W 972,7 20 0 0,4
13.12.2017 18:00:00 3,1 2,2 - - 24 13 - - WSW 972,7 40 0 0,0
13.12.2017 17:00:00 3,2 1,7 - - 15 8 - - SW 973,0 25 0 0,0
13.12.2017 16:00:00 3,1 1,8 - - 18 10 - - SW 973,3 30 0 0,2
13.12.2017 15:00:00 2,6 1,8 - - 29 16 - - SW 973,8 25 0 0,6
13.12.2017 14:00:00 3,1 2,1 - - 26 14 - - SW 974,3 18 0 0,2
13.12.2017 13:00:00 3,7 2,8 - - 31 17 50 27 SSW 975,2 18 0 1,4
13.12.2017 12:00:00 3,4 2,1 - - 39 21 52 28 SSW 976,5 5 0 0,2
13.12.2017 11:00:00 3,7 1,8 - - 16 9 - - SSW 977,5 20 0 0,0
13.12.2017 10:00:00 3,2 1,9 - - 18 10 - - SSW 978,5 15 0 0,0
13.12.2017 09:00:00 2,2 0,9 4,2 3,2 13 7 - - SSW 979,2 15 0 0,0
13.12.2017 08:00:00 3,5 1,2 - - 16 9 - - WSW 979,8 24 0 0,0
13.12.2017 07:00:00 4,0 1,3 - - 24 13 - - WSW 980,4 19 0 0,0
13.12.2017 06:00:00 3,8 1,6 - - 29 16 - - WSW 981,2 27 0 0,0
13.12.2017 05:00:00 3,4 1,1 - - 22 12 46 25 WSW 981,8 35 0 0,4
13.12.2017 04:00:00 3,3 2,5 - - 22 12 - - SSW 982,7 29 0 0,4
13.12.2017 03:00:00 3,3 2,4 - - 21 11 - - SSW 983,5 30 0 0,0
13.12.2017 02:00:00 3,4 2,4 - - 28 15 48 26 SW 984,2 12 0 0,2
13.12.2017 01:00:00 3,4 2,2 - - 31 17 55 30 SSW 985,4 6 0 0,8
13.12.2017 00:00:00 4,6 2,2 - - 37 20 54 29 S 986,3 13 - 0,0
12.12.2017 23:00:00 4,6 1,9 - - 35 19 50 27 S 987,4 30 0 0,0
12.12.2017 22:00:00 4,1 1,3 - - 31 17 54 29 SSW 988,8 29 0 0,0

tt = Température de l'air
td = dewpoint
tt -20cm = Température de l'air -20cm
tt -100cm = Température de l'air -100cm
ff = Vitesse du vent
fx = gusts
dd = Direction du vent
ppp = reduced air pressure
vv = visibility
sd = Ensoleillement
rr = Quantités de précipitations

stations d'obs. à proximité